sat.trackr.live / text

‹ back to catalog

LEMUR-2-KREMPEL-BRO2

NORAD 63353 · 2025-061C

PAYLOAD ACTIVE UNKNOWN

§ Identity

Operator
Country
US
Launch date
2025-03-26
Launch site
RLLB
Launch vehicle
Mass (kg)
RCS (m²)

Purposes: earth_obs

External: N2YO · Heavens-Above · Gunter

§ Orbital elements

Epoch: 2026-09-19T17:13:42.988224Z

Period
95.07 min
Inclination
97.5807°
Eccentricity
0.0017380
Mean motion
15.14595859 rev/d
Perigee alt
510.2 km
Apogee alt
534.2 km
Semi-major
6,900.3 km
B*
1.2967e-4
RAAN
238.2534°
Arg perigee
293.2219°
Mean anomaly
66.7182°
Rev number
8,191

§ Raw data

LEMUR-2-KREMPEL-BRO21 63353U 25061C   26262.71785866  .00002333  00000+0  12967-3 0  99982 63353  97.5807 238.2534 0017380 293.2219  66.7182 15.14595859 81913

JSON: /api/v1/satellites/63353 · /tle

For live sub-satellite position, see the globe view (requires WebGL).

§ Visibility from observer

Set your observer location to see the next 7 days of passes ≥ 10°. The values pass through the URL so the page stays shareable.

No JS? Fill the form by hand. The geolocation button needs JavaScript.